Index of /20260507/WXO-DD/model_gdps/15km/00/219
Name Last modified Size Description
Parent Directory -
20260507T00Z_MSC_GDPS_AirTemp_AGL-120m_LatLon0.15_PT219H.grib2 2026-05-07 04:44 904K
20260507T00Z_MSC_GDPS_AirTemp_AGL-2m_LatLon0.15_PT219H.grib2 2026-05-07 04:44 1.0M
20260507T00Z_MSC_GDPS_AirTemp_AGL-40m_LatLon0.15_PT219H.grib2 2026-05-07 04:44 928K
20260507T00Z_MSC_GDPS_AirTemp_AGL-80m_LatLon0.15_PT219H.grib2 2026-05-07 04:44 914K
20260507T00Z_MSC_GDPS_AirTemp_IsbL-0001_LatLon0.15_PT219H.grib2 2026-05-07 04:44 668K
20260507T00Z_MSC_GDPS_AirTemp_IsbL-0005_LatLon0.15_PT219H.grib2 2026-05-07 04:44 694K
20260507T00Z_MSC_GDPS_AirTemp_IsbL-0500_LatLon0.15_PT219H.grib2 2026-05-07 04:44 1.0M
20260507T00Z_MSC_GDPS_AirTemp_IsbL-0700_LatLon0.15_PT219H.grib2 2026-05-07 04:44 950K
20260507T00Z_MSC_GDPS_AirTemp_IsbL-0850_LatLon0.15_PT219H.grib2 2026-05-07 04:44 1.1M
20260507T00Z_MSC_GDPS_AirTemp_IsbL-0925_LatLon0.15_PT219H.grib2 2026-05-07 04:44 1.1M
20260507T00Z_MSC_GDPS_AirTemp_IsbL-1000_LatLon0.15_PT219H.grib2 2026-05-07 04:44 1.1M
20260507T00Z_MSC_GDPS_Albedo_Sfc_LatLon0.15_PT219H.grib2 2026-05-07 04:44 242K
20260507T00Z_MSC_GDPS_ConvectivePrecip-Accum_Sfc_LatLon0.15_PT219H.grib2 2026-05-07 04:44 3.8M
20260507T00Z_MSC_GDPS_DewPointDepression_AGL-2m_LatLon0.15_PT219H.grib2 2026-05-07 04:44 769K
20260507T00Z_MSC_GDPS_DewPointDepression_IsbL-0500_LatLon0.15_PT219H.grib2 2026-05-07 04:44 1.0M
20260507T00Z_MSC_GDPS_DewPointDepression_IsbL-0700_LatLon0.15_PT219H.grib2 2026-05-07 04:44 1.1M
20260507T00Z_MSC_GDPS_DewPointDepression_IsbL-0850_LatLon0.15_PT219H.grib2 2026-05-07 04:44 1.1M
20260507T00Z_MSC_GDPS_DewPointDepression_IsbL-0925_LatLon0.15_PT219H.grib2 2026-05-07 04:44 1.0M
20260507T00Z_MSC_GDPS_DewPointDepression_IsbL-1000_LatLon0.15_PT219H.grib2 2026-05-07 04:44 1.0M
20260507T00Z_MSC_GDPS_DewPoint_AGL-2m_LatLon0.15_PT219H.grib2 2026-05-07 04:44 604K
20260507T00Z_MSC_GDPS_DownwardLongwaveRadiationFlux-Accum_Sfc_LatLon0.15_PT219H.grib2 2026-05-07 04:44 732K
20260507T00Z_MSC_GDPS_DownwardShortwaveRadiationFlux-Accum_Sfc_LatLon0.15_PT219H.grib2 2026-05-07 04:44 898K
20260507T00Z_MSC_GDPS_FreezingRain-Accum_Sfc_LatLon0.15_PT219H.grib2 2026-05-07 04:44 477K
20260507T00Z_MSC_GDPS_GeopotentialHeight_IsbL-0001_LatLon0.15_PT219H.grib2 2026-05-07 04:44 458K
20260507T00Z_MSC_GDPS_GeopotentialHeight_IsbL-0005_LatLon0.15_PT219H.grib2 2026-05-07 04:44 359K
20260507T00Z_MSC_GDPS_GeopotentialHeight_IsbL-0500_LatLon0.15_PT219H.grib2 2026-05-07 04:44 529K
20260507T00Z_MSC_GDPS_GeopotentialHeight_IsbL-0700_LatLon0.15_PT219H.grib2 2026-05-07 04:44 690K
20260507T00Z_MSC_GDPS_GeopotentialHeight_IsbL-0850_LatLon0.15_PT219H.grib2 2026-05-07 04:44 713K
20260507T00Z_MSC_GDPS_GeopotentialHeight_IsbL-0925_LatLon0.15_PT219H.grib2 2026-05-07 04:44 733K
20260507T00Z_MSC_GDPS_GeopotentialHeight_IsbL-1000_LatLon0.15_PT219H.grib2 2026-05-07 04:44 789K
20260507T00Z_MSC_GDPS_IcePellets-Accum_Sfc_LatLon0.15_PT219H.grib2 2026-05-07 04:44 241K
20260507T00Z_MSC_GDPS_LatentHeatNetFlux_Sfc_LatLon0.15_PT219H.grib2 2026-05-07 04:44 688K
20260507T00Z_MSC_GDPS_NetLongwaveRadiationFlux-Accum_Sfc_LatLon0.15_PT219H.grib2 2026-05-07 04:44 925K
20260507T00Z_MSC_GDPS_NetShortwaveRadiationFlux-Accum_Sfc_LatLon0.15_PT219H.grib2 2026-05-07 04:44 877K
20260507T00Z_MSC_GDPS_O3MixingRatio_Sfc_LatLon0.15_PT219H.grib2 2026-05-07 04:56 1.9M
20260507T00Z_MSC_GDPS_O3_EAtm_LatLon0.15_PT219H.grib2 2026-05-07 04:56 2.4M
20260507T00Z_MSC_GDPS_PlanetaryBoundaryLayerHeight_Sfc_LatLon0.15_PT219H.grib2 2026-05-07 04:44 2.5M
20260507T00Z_MSC_GDPS_Precip-Accum_Sfc_LatLon0.15_PT219H.grib2 2026-05-07 04:44 5.2M
20260507T00Z_MSC_GDPS_PrecipRate_Sfc_LatLon0.15_PT219H.grib2 2026-05-07 04:44 3.0M
20260507T00Z_MSC_GDPS_Pressure_MSL_LatLon0.15_PT219H.grib2 2026-05-07 04:44 724K
20260507T00Z_MSC_GDPS_Pressure_Sfc_LatLon0.15_PT219H.grib2 2026-05-07 04:44 1.1M
20260507T00Z_MSC_GDPS_RadiativeTemp_Sfc_LatLon0.15_PT219H.grib2 2026-05-07 04:44 664K
20260507T00Z_MSC_GDPS_Rain-Accum_Sfc_LatLon0.15_PT219H.grib2 2026-05-07 04:44 4.1M
20260507T00Z_MSC_GDPS_RelativeHumidity_AGL-2m_LatLon0.15_PT219H.grib2 2026-05-07 04:44 1.0M
20260507T00Z_MSC_GDPS_Runoff-Accum_Sfc_LatLon0.15_PT219H.grib2 2026-05-07 04:44 139K
20260507T00Z_MSC_GDPS_SensibleHeatNetFlux_Sfc_LatLon0.15_PT219H.grib2 2026-05-07 04:44 462K
20260507T00Z_MSC_GDPS_Snow-Accum_Sfc_LatLon0.15_PT219H.grib2 2026-05-07 04:44 2.1M
20260507T00Z_MSC_GDPS_SnowDepth_Sfc_LatLon0.15_PT219H.grib2 2026-05-07 04:44 1.7M
20260507T00Z_MSC_GDPS_SoilTemp_DBS-0to10cm_LatLon0.15_PT219H.grib2 2026-05-07 04:44 513K
20260507T00Z_MSC_GDPS_SoilTemp_Sfc_LatLon0.15_PT219H.grib2 2026-05-07 04:44 576K
20260507T00Z_MSC_GDPS_SoilVolumetricWaterContent_DBS-0to10cm_LatLon0.15_PT219H.grib2 2026-05-07 04:44 607K
20260507T00Z_MSC_GDPS_SoilVolumetricWaterContent_DBS-0to1cm_LatLon0.15_PT219H.grib2 2026-05-07 04:44 648K
20260507T00Z_MSC_GDPS_SpecificHumidity_AGL-120m_LatLon0.15_PT219H.grib2 2026-05-07 04:44 1.1M
20260507T00Z_MSC_GDPS_SpecificHumidity_AGL-2m_LatLon0.15_PT219H.grib2 2026-05-07 04:44 1.2M
20260507T00Z_MSC_GDPS_SpecificHumidity_AGL-40m_LatLon0.15_PT219H.grib2 2026-05-07 04:44 1.1M
20260507T00Z_MSC_GDPS_SpecificHumidity_AGL-80m_LatLon0.15_PT219H.grib2 2026-05-07 04:44 1.1M
20260507T00Z_MSC_GDPS_SpecificHumidity_IsbL-0001_LatLon0.15_PT219H.grib2 2026-05-07 04:44 1.1M
20260507T00Z_MSC_GDPS_SpecificHumidity_IsbL-0005_LatLon0.15_PT219H.grib2 2026-05-07 04:44 1.0M
20260507T00Z_MSC_GDPS_SpecificHumidity_IsbL-0500_LatLon0.15_PT219H.grib2 2026-05-07 04:44 1.5M
20260507T00Z_MSC_GDPS_SpecificHumidity_IsbL-0700_LatLon0.15_PT219H.grib2 2026-05-07 04:44 1.7M
20260507T00Z_MSC_GDPS_SpecificHumidity_IsbL-0850_LatLon0.15_PT219H.grib2 2026-05-07 04:44 2.0M
20260507T00Z_MSC_GDPS_SpecificHumidity_IsbL-0925_LatLon0.15_PT219H.grib2 2026-05-07 04:44 1.6M
20260507T00Z_MSC_GDPS_SpecificHumidity_IsbL-1000_LatLon0.15_PT219H.grib2 2026-05-07 04:44 1.5M
20260507T00Z_MSC_GDPS_SpecificHumidity_Sfc_LatLon0.15_PT219H.grib2 2026-05-07 04:44 649K
20260507T00Z_MSC_GDPS_Thickness_IsbL-0850to0700_LatLon0.15_PT219H.grib2 2026-05-07 04:44 468K
20260507T00Z_MSC_GDPS_Thickness_IsbL-1000to0500_LatLon0.15_PT219H.grib2 2026-05-07 04:44 331K
20260507T00Z_MSC_GDPS_Thickness_IsbL-1000to0850_LatLon0.15_PT219H.grib2 2026-05-07 04:44 488K
20260507T00Z_MSC_GDPS_TotalCloudCover_Sfc_LatLon0.15_PT219H.grib2 2026-05-07 04:44 861K
20260507T00Z_MSC_GDPS_UVIndex-ClearSky_Sfc_LatLon0.15_PT219H.grib2 2026-05-07 04:56 1.1M
20260507T00Z_MSC_GDPS_UVIndex_Sfc_LatLon0.15_PT219H.grib2 2026-05-07 04:56 1.5M
20260507T00Z_MSC_GDPS_UpwardLongwaveRadiationFlux_NTAtm_LatLon0.15_PT219H.grib2 2026-05-07 04:44 1.1M
20260507T00Z_MSC_GDPS_VerticalVelocity_IsbL-0500_LatLon0.15_PT219H.grib2 2026-05-07 04:44 1.0M
20260507T00Z_MSC_GDPS_VerticalVelocity_IsbL-0700_LatLon0.15_PT219H.grib2 2026-05-07 04:44 1.1M
20260507T00Z_MSC_GDPS_VerticalVelocity_IsbL-0850_LatLon0.15_PT219H.grib2 2026-05-07 04:44 1.6M
20260507T00Z_MSC_GDPS_WindDir_AGL-10m_LatLon0.15_PT219H.grib2 2026-05-07 04:44 1.3M
20260507T00Z_MSC_GDPS_WindDir_AGL-120m_LatLon0.15_PT219H.grib2 2026-05-07 04:44 1.3M
20260507T00Z_MSC_GDPS_WindDir_AGL-40m_LatLon0.15_PT219H.grib2 2026-05-07 04:44 1.4M
20260507T00Z_MSC_GDPS_WindDir_AGL-80m_LatLon0.15_PT219H.grib2 2026-05-07 04:44 1.4M
20260507T00Z_MSC_GDPS_WindDir_IsbL-0001_LatLon0.15_PT219H.grib2 2026-05-07 04:44 639K
20260507T00Z_MSC_GDPS_WindDir_IsbL-0005_LatLon0.15_PT219H.grib2 2026-05-07 04:44 779K
20260507T00Z_MSC_GDPS_WindDir_IsbL-0500_LatLon0.15_PT219H.grib2 2026-05-07 04:44 1.3M
20260507T00Z_MSC_GDPS_WindDir_IsbL-0700_LatLon0.15_PT219H.grib2 2026-05-07 04:44 1.6M
20260507T00Z_MSC_GDPS_WindDir_IsbL-0850_LatLon0.15_PT219H.grib2 2026-05-07 04:44 1.9M
20260507T00Z_MSC_GDPS_WindDir_IsbL-0925_LatLon0.15_PT219H.grib2 2026-05-07 04:44 2.0M
20260507T00Z_MSC_GDPS_WindDir_IsbL-1000_LatLon0.15_PT219H.grib2 2026-05-07 04:44 2.1M
20260507T00Z_MSC_GDPS_WindGust-Max_AGL-10m_LatLon0.15_PT219H.grib2 2026-05-07 04:44 2.2M
20260507T00Z_MSC_GDPS_WindGust-Min_AGL-10m_LatLon0.15_PT219H.grib2 2026-05-07 04:44 2.2M
20260507T00Z_MSC_GDPS_WindGust_AGL-10m_LatLon0.15_PT219H.grib2 2026-05-07 04:44 2.2M
20260507T00Z_MSC_GDPS_WindSpeed_AGL-10m_LatLon0.15_PT219H.grib2 2026-05-07 04:44 1.1M
20260507T00Z_MSC_GDPS_WindSpeed_AGL-120m_LatLon0.15_PT219H.grib2 2026-05-07 04:44 1.2M
20260507T00Z_MSC_GDPS_WindSpeed_AGL-40m_LatLon0.15_PT219H.grib2 2026-05-07 04:44 1.2M
20260507T00Z_MSC_GDPS_WindSpeed_AGL-80m_LatLon0.15_PT219H.grib2 2026-05-07 04:44 1.2M
20260507T00Z_MSC_GDPS_WindSpeed_IsbL-0001_LatLon0.15_PT219H.grib2 2026-05-07 04:44 505K
20260507T00Z_MSC_GDPS_WindSpeed_IsbL-0005_LatLon0.15_PT219H.grib2 2026-05-07 04:44 691K
20260507T00Z_MSC_GDPS_WindSpeed_IsbL-0500_LatLon0.15_PT219H.grib2 2026-05-07 04:44 1.1M
20260507T00Z_MSC_GDPS_WindSpeed_IsbL-0700_LatLon0.15_PT219H.grib2 2026-05-07 04:44 1.5M
20260507T00Z_MSC_GDPS_WindSpeed_IsbL-0850_LatLon0.15_PT219H.grib2 2026-05-07 04:44 1.7M
20260507T00Z_MSC_GDPS_WindSpeed_IsbL-0925_LatLon0.15_PT219H.grib2 2026-05-07 04:44 1.9M
20260507T00Z_MSC_GDPS_WindSpeed_IsbL-1000_LatLon0.15_PT219H.grib2 2026-05-07 04:44 1.8M
20260507T00Z_MSC_GDPS_WindU_AGL-10m_LatLon0.15_PT219H.grib2 2026-05-07 04:44 1.3M
20260507T00Z_MSC_GDPS_WindU_AGL-120m_LatLon0.15_PT219H.grib2 2026-05-07 04:44 1.0M
20260507T00Z_MSC_GDPS_WindU_AGL-40m_LatLon0.15_PT219H.grib2 2026-05-07 04:44 972K
20260507T00Z_MSC_GDPS_WindU_AGL-80m_LatLon0.15_PT219H.grib2 2026-05-07 04:44 1.0M
20260507T00Z_MSC_GDPS_WindU_IsbL-0001_LatLon0.15_PT219H.grib2 2026-05-07 04:44 600K
20260507T00Z_MSC_GDPS_WindU_IsbL-0005_LatLon0.15_PT219H.grib2 2026-05-07 04:44 691K
20260507T00Z_MSC_GDPS_WindU_IsbL-0500_LatLon0.15_PT219H.grib2 2026-05-07 04:44 1.1M
20260507T00Z_MSC_GDPS_WindU_IsbL-0700_LatLon0.15_PT219H.grib2 2026-05-07 04:44 1.2M
20260507T00Z_MSC_GDPS_WindU_IsbL-0850_LatLon0.15_PT219H.grib2 2026-05-07 04:44 1.4M
20260507T00Z_MSC_GDPS_WindU_IsbL-0925_LatLon0.15_PT219H.grib2 2026-05-07 04:44 1.5M
20260507T00Z_MSC_GDPS_WindU_IsbL-1000_LatLon0.15_PT219H.grib2 2026-05-07 04:44 1.4M
20260507T00Z_MSC_GDPS_WindV_AGL-10m_LatLon0.15_PT219H.grib2 2026-05-07 04:44 1.6M
20260507T00Z_MSC_GDPS_WindV_AGL-120m_LatLon0.15_PT219H.grib2 2026-05-07 04:44 1.0M
20260507T00Z_MSC_GDPS_WindV_AGL-40m_LatLon0.15_PT219H.grib2 2026-05-07 04:44 966K
20260507T00Z_MSC_GDPS_WindV_AGL-80m_LatLon0.15_PT219H.grib2 2026-05-07 04:44 1.0M
20260507T00Z_MSC_GDPS_WindV_IsbL-0001_LatLon0.15_PT219H.grib2 2026-05-07 04:44 795K
20260507T00Z_MSC_GDPS_WindV_IsbL-0005_LatLon0.15_PT219H.grib2 2026-05-07 04:44 865K
20260507T00Z_MSC_GDPS_WindV_IsbL-0500_LatLon0.15_PT219H.grib2 2026-05-07 04:44 1.1M
20260507T00Z_MSC_GDPS_WindV_IsbL-0700_LatLon0.15_PT219H.grib2 2026-05-07 04:44 1.2M
20260507T00Z_MSC_GDPS_WindV_IsbL-0850_LatLon0.15_PT219H.grib2 2026-05-07 04:44 1.4M
20260507T00Z_MSC_GDPS_WindV_IsbL-0925_LatLon0.15_PT219H.grib2 2026-05-07 04:44 1.5M
20260507T00Z_MSC_GDPS_WindV_IsbL-1000_LatLon0.15_PT219H.grib2 2026-05-07 04:44 1.7M